Wind_Gust
15 15 15 15 15 14 14 14 15 14 15 15 16 17 17 17 17 18 18 18 18 19 18 19 20 21 21 23 24 25 22 19 22 16 8 29 10 20 13 11 8 9 10 5 5 3 4 2 2 3 3 4 8 5 10 7 8 5 9 12 9 14 17 10 12 14 7 12 15 21 8 13 13 9 17 22 22 22 19 22 24 24 18 21 27 25 26 24
15 15 15 15 15 15 15 15 15 15 15 15 15 16 17 17 18 18 18 18 18 19 20 18 19 21 22 22 24 23 20 15 18 19 37 16 14 15 21 22 19 12 11 5 6 5 3 3 6 3 6 8 2 9 6 10 10 10 7 11 19 15 15 6 7 11 9 14 16 18 11 7 13 19 15 21 11 25 26 19 27 27 24 24 24 26 27 22
15 15 15 15 15 15 15 15 15 15 16 16 15 16 16 17 17 18 19 18 19 19 19 19 19 21 22 22 22 21 17 16 11 22 33 21 32 23 21 22 18 11 18 7 7 9 10 4 3 5 4 6 5 11 3 13 11 11 10 14 24 7 7 6 9 14 12 11 16 16 16 4 12 8 10 17 14 25 30 28 23 30 28 27 24 26 24 22
16 15 16 15 15 15 15 16 15 15 16 16 16 16 17 17 18 18 19 19 19 19 18 19 19 20 22 23 22 17 9 9 13 18 9 15 23 31 31 25 18 17 13 6 6 9 5 4 4 4 5 6 9 6 8 12 12 8 12 20 10 9 11 13 8 12 15 13 13 13 9 10 7 7 16 20 21 7 19 31 35 35 35 30 28 26 25 22
17 17 16 17 16 16 16 16 16 16 16 16 17 17 18 18 18 19 19 19 19 18 18 18 19 21 22 23 21 9 8 7 15 4 7 8 11 23 27 27 19 15 16 5 6 3 5 4 3 3 6 11 6 2 9 7 12 7 13 6 9 8 13 13 11 15 17 10 6 4 10 9 7 16 19 25 26 23 32 22 29 35 35 37 31 26 24 23
17 17 18 17 17 16 16 16 16 16 16 17 17 17 18 18 19 19 19 19 19 18 17 18 19 20 22 23 19 4 3 13 7 10 9 10 11 16 17 17 15 12 11 6 8 3 5 2 6 5 7 7 7 11 9 13 7 13 14 6 9 12 15 7 9 13 9 6 5 6 4 6 6 10 10 6 8 12 9 18 21 30 31 28 29 29 25 22
19 18 18 18 17 17 17 16 16 17 17 16 17 17 18 19 19 19 19 19 18 17 17 18 19 21 20 18 14 3 8 30 10 14 18 16 17 16 18 17 16 12 11 9 6 9 5 4 8 7 6 6 9 16 14 3 5 13 21 5 11 13 14 15 15 12 15 9 11 5 4 9 8 14 6 15 13 20 18 20 23 24 25 28 29 22 22 21
21 20 18 18 18 17 17 17 17 17 17 17 18 18 18 19 19 19 19 19 18 17 17 17 17 19 18 14 7 5 3 26 28 12 15 16 17 14 19 13 15 12 12 14 10 9 6 8 12 7 8 10 7 13 8 9 6 14 21 12 13 9 12 14 14 15 18 21 15 7 9 3 6 13 9 14 22 25 24 22 22 22 23 21 23 25 21 20
22 23 21 19 18 18 17 16 17 17 18 18 18 18 18 17 18 18 18 17 17 16 17 17 18 17 15 5 5 5 22 24 8 11 12 11 12 10 15 16 8 15 12 7 8 8 9 12 10 10 10 9 9 9 6 5 12 12 19 14 13 12 10 12 11 14 19 20 9 9 10 9 20 20 18 15 19 24 26 23 23 23 22 20 18 19 20 19
23 23 22 23 21 18 17 16 17 17 17 18 19 19 18 17 18 17 18 17 17 16 16 16 15 16 11 8 5 8 18 6 8 12 12 10 8 8 11 7 13 11 10 10 7 10 13 16 12 6 2 11 7 13 3 6 12 7 6 13 14 15 11 6 10 12 13 9 9 11 12 15 5 12 8 9 20 22 23 25 21 23 21 19 18 17 18 21
23 23 23 24 24 20 17 17 16 17 18 18 18 18 19 18 18 18 17 17 17 16 15 14 14 12 8 8 7 22 11 8 8 12 12 12 7 7 11 9 12 16 15 7 14 16 14 10 4 4 6 16 8 9 4 10 4 8 13 8 8 13 11 7 4 13 7 11 11 18 12 14 4 11 21 19 16 23 28 26 23 19 20 20 18 18 20 24
23 24 24 23 24 23 19 17 17 17 18 18 18 19 19 18 18 18 18 17 16 15 14 14 14 11 9 12 15 31 7 7 11 12 13 8 9 11 10 12 15 16 15 13 13 12 13 12 3 4 15 7 7 8 11 6 6 8 8 8 10 8 16 6 15 11 6 10 9 13 13 13 7 15 23 23 18 19 24 24 20 19 21 22 20 18 19 19
22 23 24 24 24 24 22 19 18 17 18 18 18 18 19 19 19 18 18 17 15 15 14 14 11 6 9 13 30 28 26 19 18 19 20 6 9 12 12 9 17 13 17 15 11 10 11 9 5 6 10 7 7 12 12 12 9 11 6 9 8 7 8 12 6 6 9 12 12 11 11 17 7 18 23 22 23 20 21 21 20 22 22 21 20 19 18 18
23 23 23 23 23 24 24 22 19 17 17 18 18 18 19 19 20 19 19 18 17 15 14 13 7 9 10 23 27 9 14 20 21 21 20 9 7 14 14 11 15 14 10 12 11 7 11 9 8 10 6 6 12 6 15 14 8 9 9 4 6 2 10 8 9 9 14 12 9 9 13 15 6 17 24 23 28 27 24 23 25 23 20 21 20 19 19 17
23 23 23 23 24 24 24 23 21 17 17 18 18 18 19 19 20 20 19 17 16 14 14 11 5 7 8 31 17 21 25 16 13 22 23 10 7 12 14 10 13 13 14 12 9 4 9 11 7 8 12 7 9 8 12 7 7 6 7 10 8 6 11 10 6 13 17 10 8 11 11 15 12 22 21 22 24 24 26 25 23 22 21 21 20 22 18 14
23 23 23 23 23 24 23 23 22 18 16 18 19 19 19 20 20 19 19 16 17 15 9 4 8 10 10 28 19 11 10 8 16 21 20 12 10 13 12 6 9 10 8 9 13 6 6 9 11 13 11 8 5 6 8 11 11 8 7 7 4 5 10 6 3 8 12 12 4 13 14 10 5 18 22 20 24 25 28 25 23 23 24 22 23 18 17 17
22 23 23 22 21 23 24 23 22 18 16 16 17 19 19 19 20 19 17 16 13 10 9 8 4 12 11 16 12 9 12 17 10 6 6 13 16 17 5 8 12 13 11 7 7 7 5 10 6 10 10 12 9 7 6 7 9 9 4 9 7 7 5 7 10 5 7 9 7 7 14 8 14 23 22 20 24 23 27 26 24 23 21 21 21 20 19 17
22 23 23 22 23 22 21 21 22 19 15 14 14 15 23 20 22 18 12 8 9 8 6 9 6 4 34 27 18 10 5 9 7 12 7 6 17 11 9 10 6 9 10 12 5 10 8 13 8 13 5 9 9 8 18 18 17 11 6 5 7 3 5 9 11 7 6 8 12 4 8 15 18 23 26 24 21 25 28 30 26 24 23 22 21 20 19 18
22 22 22 22 21 21 22 22 21 18 13 12 15 17 22 23 12 4 7 7 7 5 7 17 16 18 7 7 12 8 11 10 9 5 6 9 7 10 7 7 7 8 12 14 11 12 9 8 4 7 18 13 15 13 16 14 9 9 8 8 6 7 9 9 11 8 10 8 13 7 13 18 15 22 24 24 27 25 24 23 23 21 21 21 22 20 19 17
22 21 21 21 21 22 21 20 19 17 11 7 8 14 11 6 4 9 6 9 16 14 7 9 26 11 18 13 7 9 10 8 6 8 7 6 15 8 7 8 6 8 12 18 7 13 11 16 19 23 16 11 8 12 13 13 10 6 4 3 8 9 11 7 6 9 8 10 15 15 10 15 19 24 22 22 18 14 22 24 23 22 22 22 22 19 18 15
22 21 21 20 20 20 21 20 18 12 8 7 4 9 11 9 6 11 8 14 20 20 20 13 22 25 28 8 13 21 23 15 4 6 12 6 8 15 12 10 8 9 9 12 13 7 11 14 20 9 11 11 12 11 10 6 6 6 4 3 8 3 10 9 9 8 8 15 12 9 10 15 20 21 22 19 24 19 21 23 23 22 21 22 21 20 17 13
22 20 20 20 19 20 19 18 17 13 7 7 7 15 11 11 5 5 6 15 11 23 23 25 16 26 30 27 19 12 9 14 22 14 13 13 11 21 7 12 9 14 5 9 7 10 19 25 12 11 9 9 8 10 10 12 12 6 6 4 5 14 8 12 12 10 9 14 18 8 14 20 17 21 24 26 26 30 31 29 29 28 24 23 22 20 19 17
22 21 19 18 18 21 19 16 14 9 6 7 15 15 24 12 11 9 7 15 22 18 22 23 20 25 33 24 15 6 10 14 18 13 12 15 13 22 13 14 11 9 10 12 22 10 14 17 12 9 8 8 8 9 11 11 8 8 6 5 19 8 4 12 10 8 9 23 14 11 17 19 9 16 22 26 27 26 21 19 24 27 31 26 25 23 23 20
22 21 19 18 18 19 18 17 9 6 11 11 17 25 14 5 4 11 9 12 14 10 19 23 26 22 29 21 16 21 17 15 12 17 12 25 22 16 16 15 11 12 19 17 15 16 11 7 14 10 10 13 10 8 9 12 14 7 8 12 19 9 10 11 14 12 9 11 7 8 10 11 13 18 17 15 25 25 19 22 18 13 14 20 20 18 19 23
22 21 19 17 18 18 17 9 7 13 10 8 21 27 20 19 11 7 7 12 13 21 13 16 16 18 27 11 9 18 11 14 17 13 9 20 21 23 21 16 17 19 14 13 11 8 12 9 13 13 11 10 11 11 13 14 12 12 9 19 21 9 6 7 8 10 15 15 9 17 14 21 10 25 27 14 19 14 18 21 18 17 19 19 19 19 17 16
20 19 18 17 16 16 12 10 10 9 10 18 15 10 13 16 13 11 6 8 15 12 11 17 25 26 28 12 19 15 7 18 14 23 18 21 19 24 23 23 26 21 15 15 18 19 13 7 16 18 14 11 12 15 11 13 14 9 21 17 16 9 8 7 11 4 8 19 17 10 20 22 6 16 21 21 21 18 18 19 17 18 20 18 19 20 19 21
19 18 17 16 15 12 12 17 8 13 12 18 11 15 10 11 14 13 11 10 12 23 23 16 23 23 26 20 24 17 10 21 8 10 17 25 25 18 21 13 17 11 16 14 15 26 18 16 14 15 16 17 15 19 19 15 13 21 12 13 12 10 11 13 11 12 18 8 13 7 18 18 10 17 20 25 24 21 21 18 19 19 19 17 19 19 18 20
17 16 16 16 15 16 11 7 7 11 17 9 13 11 11 11 17 10 7 10 22 15 18 19 22 12 11 21 23 27 13 7 25 16 16 19 17 22 22 17 19 14 16 17 27 8 17 17 19 19 17 21 25 22 12 15 22 25 8 13 10 12 15 15 12 13 11 4 19 10 5 15 11 10 7 21 25 22 24 22 22 21 21 19 19 17 17 17
16 16 16 16 15 17 15 9 8 17 6 14 18 20 16 9 23 14 10 13 15 18 16 17 13 11 10 19 21 20 13 5 9 12 12 17 22 15 28 13 12 12 9 15 14 10 22 17 19 19 21 25 16 15 16 16 19 23 6 5 6 6 8 7 12 13 9 7 16 13 13 19 6 8 18 13 25 29 25 25 23 24 22 18 18 17 16 14
15 15 15 14 11 11 14 8 18 19 16 19 18 18 16 10 13 9 10 13 9 5 9 10 19 14 17 25 22 22 13 8 6 15 14 23 18 9 14 10 13 17 17 9 11 13 12 13 14 23 25 22 17 16 18 15 24 7 10 11 8 4 3 4 5 8 9 13 19 13 10 16 14 16 24 30 33 31 23 17 13 16 13 13 16 17 15 16
15 15 14 10 11 11 11 11 20 16 16 18 17 12 10 9 12 11 10 22 10 7 8 12 14 17 23 22 23 17 13 8 6 18 18 15 15 13 13 16 10 13 11 11 16 16 12 11 22 20 13 19 14 18 13 17 16 11 15 10 7 11 7 7 9 6 15 19 18 11 14 10 20 15 15 12 7 25 37 31 29 25 21 19 18 17 16 15
14 13 13 11 8 10 16 15 6 8 11 13 14 8 12 15 9 17 20 10 12 9 6 13 7 22 19 12 20 29 25 9 8 16 22 23 16 25 24 20 28 24 23 19 21 10 21 20 9 11 15 20 19 14 13 12 15 16 9 6 14 12 13 18 9 14 16 21 14 6 15 8 15 11 11 19 11 22 24 35 39 31 25 22 19 17 16 17
13 10 12 12 12 10 19 17 14 13 16 18 13 8 13 11 22 17 14 15 12 14 10 5 12 17 18 14 20 18 11 11 8 7 14 16 22 17 9 17 11 21 23 8 9 15 19 10 10 12 11 23 19 24 17 16 20 15 21 18 16 17 17 17 11 11 10 16 10 3 10 15 6 6 10 12 11 21 14 6 15 24 24 23 19 16 17 17
11 10 8 8 14 16 8 7 12 11 15 16 9 7 9 14 17 6 10 9 10 14 12 10 11 12 19 28 19 21 17 11 9 14 15 19 17 22 19 15 14 14 11 12 26 21 17 22 27 18 22 16 26 25 22 13 13 22 10 20 16 16 21 18 15 19 15 18 8 9 16 15 8 6 11 10 19 20 12 14 16 19 19 16 15 17 17 16
10 8 8 7 12 9 8 13 13 9 9 13 8 13 24 23 5 6 5 17 16 16 15 20 12 18 16 10 8 18 15 21 11 6 16 19 23 23 25 25 12 12 11 23 15 17 21 25 14 16 7 16 21 17 17 15 9 13 13 14 13 26 14 8 16 12 12 10 7 12 9 5 7 7 8 11 18 19 20 20 21 20 16 18 18 17 17 16
5 6 6 6 6 5 8 14 10 7 8 10 14 16 18 13 10 12 12 17 16 20 25 20 14 19 16 10 11 15 18 10 11 10 9 16 14 22 14 17 25 16 19 25 15 19 13 24 5 11 13 13 19 16 18 19 30 17 18 26 20 12 13 8 3 3 7 12 8 6 7 6 6 13 15 14 19 19 20 22 21 17 17 17 16 15 16 16
11 5 5 5 7 7 10 9 9 8 7 7 10 10 12 17 12 13 17 20 22 20 14 11 19 10 17 18 14 19 21 10 8 16 12 9 16 18 21 15 11 17 11 16 8 10 18 16 8 10 18 18 11 22 15 18 17 17 26 15 6 6 12 17 15 6 8 16 12 4 12 12 10 13 7 17 22 21 23 25 19 16 15 16 14 14 16 16
6 4 5 6 13 12 13 11 5 7 9 6 7 7 6 17 11 15 16 24 23 17 14 5 9 7 19 14 16 20 16 23 9 15 10 16 23 12 14 23 12 19 16 9 10 10 7 8 12 11 13 18 7 14 11 10 8 17 16 13 27 17 16 10 14 10 11 12 10 8 12 10 5 11 15 19 22 22 25 22 18 17 15 15 15 16 16 15
5 3 10 11 14 16 13 5 5 8 4 9 6 14 12 20 13 15 18 21 20 18 11 5 5 6 8 14 13 18 19 28 11 11 14 18 18 17 23 17 15 15 15 14 16 11 7 11 11 8 17 11 12 16 23 19 6 4 11 22 7 14 10 12 23 12 17 8 8 7 9 13 11 14 21 28 25 21 21 22 18 16 17 17 17 18 18 16
7 7 11 8 9 10 7 6 6 5 6 11 8 21 12 19 15 14 17 19 19 16 7 9 6 8 5 3 7 14 22 19 14 12 11 11 21 8 22 16 16 20 19 13 13 8 9 5 8 13 5 14 22 24 22 19 18 11 16 15 13 13 8 14 8 13 13 18 14 14 13 14 11 10 14 19 22 24 27 26 22 17 18 17 16 18 18 16
5 9 8 7 10 6 9 8 8 7 7 6 8 14 13 16 16 20 20 21 25 16 19 15 13 6 5 9 6 8 16 18 21 15 14 11 24 16 19 20 17 18 22 16 15 8 11 8 14 9 12 19 13 12 9 18 18 17 20 18 15 15 11 13 16 8 11 17 17 20 18 12 13 4 15 22 20 21 20 23 21 18 19 19 18 16 17 17
7 11 7 9 15 5 11 9 7 4 7 7 11 12 14 11 18 18 21 21 17 25 16 16 12 12 10 9 7 4 15 15 19 13 12 16 16 15 13 18 17 15 26 29 25 9 14 9 9 10 11 13 7 5 13 21 14 15 19 13 12 10 17 15 17 13 7 7 14 11 19 14 9 5 14 19 19 21 20 21 19 19 19 19 19 17 15 18
12 7 5 6 11 5 9 6 4 9 9 9 9 15 17 20 18 20 19 19 19 15 16 14 10 6 9 10 4 4 6 16 18 19 9 14 21 31 14 21 19 19 17 22 11 14 8 13 9 8 7 11 10 9 5 10 16 8 7 9 13 13 14 17 14 13 16 7 7 6 9 10 7 4 15 17 14 18 18 20 21 18 18 20 19 18 17 16
8 8 8 6 8 8 7 9 8 8 11 13 12 16 11 16 16 19 18 21 18 16 11 10 7 11 5 8 4 5 7 10 10 18 17 9 23 24 16 18 23 28 24 18 28 14 27 12 11 7 9 7 10 9 10 5 11 15 13 11 10 9 7 8 11 5 12 11 14 17 15 10 6 11 17 18 19 19 18 17 23 20 17 19 19 17 16 16
7 6 8 9 8 7 12 6 6 4 9 9 12 12 13 12 13 21 22 25 17 18 14 14 9 8 8 8 6 7 7 9 13 18 6 8 19 18 19 16 27 18 16 11 11 15 16 8 14 11 14 15 20 24 23 15 19 11 6 9 8 13 10 8 11 10 16 4 6 16 13 7 9 14 20 22 21 18 16 17 15 21 18 19 17 17 17 16
6 14 9 6 7 6 11 7 8 9 10 10 6 8 6 11 18 21 23 31 23 24 23 21 17 10 9 10 9 6 7 3 6 14 13 8 8 15 18 20 25 18 16 18 16 19 20 8 9 13 15 14 16 14 9 11 8 13 4 10 9 7 12 11 13 11 19 9 7 10 22 21 18 20 24 22 23 22 24 22 23 21 19 18 16 16 15 15
5 9 12 12 7 8 12 10 13 10 8 9 10 8 7 13 19 24 16 18 14 19 12 15 9 10 9 11 6 7 7 8 10 8 7 4 7 13 11 17 16 19 22 27 18 16 11 13 6 10 10 12 9 7 7 10 12 6 7 5 9 10 11 13 14 17 11 18 8 5 23 31 22 19 21 22 22 22 22 22 22 21 20 19 15 15 12 14
11 6 3 5 9 11 11 14 14 15 16 12 10 9 10 13 14 13 17 19 18 18 13 10 15 17 11 7 9 6 11 5 10 9 7 16 9 18 15 7 13 14 23 20 20 17 17 18 6 8 7 8 10 12 14 18 10 8 10 9 7 4 9 14 12 8 12 15 18 21 23 27 28 31 34 33 32 32 28 24 21 20 19 17 18 18 17 15
7 4 5 6 5 6 11 9 7 11 16 15 13 11 14 13 18 17 12 15 15 13 11 10 9 14 10 11 11 7 9 9 13 9 12 10 14 11 14 10 6 9 20 11 17 12 23 11 7 8 6 9 11 12 12 19 7 11 12 8 5 6 6 7 6 7 12 6 16 32 21 18 27 27 24 21 18 20 21 20 21 20 21 20 19 19 18 16
8 5 4 4 9 11 10 9 9 11 14 17 11 10 19 17 14 13 11 8 9 9 12 12 6 14 8 12 9 9 4 3 3 10 9 6 11 15 6 6 10 10 10 17 19 4 18 14 11 10 9 6 9 9 13 12 12 13 8 12 13 7 10 6 6 5 13 13 16 24 16 14 7 15 16 16 19 20 21 23 23 21 21 22 21 19 17 17
8 5 5 9 10 8 10 9 9 6 5 8 7 11 12 11 8 12 5 8 10 7 7 4 7 7 7 10 9 5 4 4 7 6 9 6 12 5 8 8 4 5 8 14 12 9 12 8 5 11 12 5 8 6 6 13 16 14 9 13 16 15 11 8 10 6 11 16 20 18 17 13 15 19 17 18 21 24 25 23 23 22 22 22 21 19 18 15
10 7 6 6 7 9 9 9 7 5 8 6 7 11 11 10 11 12 6 5 10 8 9 7 7 13 6 10 4 7 10 8 11 10 8 10 5 10 5 6 6 8 11 11 4 15 16 18 15 11 14 8 8 4 8 8 10 10 7 4 4 5 3 5 5 7 8 31 25 20 21 25 31 30 27 20 21 21 23 23 22 19 19 19 20 19 17 17
Wind_Speed
11 12 11 11 11 11 10 11 11 11 11 12 12 13 12 13 14 14 14 14 14 15 15 15 15 16 15 17 18 19 16 9 13 7 4 16 5 13 9 8 2 4 6 2 0 1 3 0 1 1 1 2 2 1 2 2 2 2 1 3 4 6 4 4 6 6 2 3 6 10 3 4 2 2 5 12 10 9 9 8 6 11 10 9 11 14 16 15
12 11 11 12 11 11 11 11 11 12 12 12 12 12 13 13 13 14 14 14 14 15 16 14 15 15 16 16 17 18 13 7 11 12 22 3 11 10 15 18 7 8 7 2 3 3 1 1 2 1 3 3 0 2 3 2 3 3 1 3 9 3 6 3 3 5 3 6 7 8 4 3 4 3 4 8 4 10 11 7 11 14 14 14 14 13 16 15
12 12 12 11 11 12 12 11 11 12 11 12 12 12 13 14 13 14 15 15 14 14 14 15 15 16 16 17 17 17 11 9 5 13 19 14 23 19 17 18 13 9 4 2 3 5 5 2 2 3 1 1 0 3 1 2 4 5 4 6 7 4 4 4 5 6 4 4 7 8 9 2 6 1 1 6 10 7 14 12 14 16 16 16 15 12 14 14
13 12 13 12 12 11 12 12 12 12 12 12 12 12 13 13 14 14 14 15 14 14 14 14 15 15 16 17 16 10 4 4 4 7 3 7 15 21 23 20 13 10 5 4 3 5 3 2 1 2 1 0 2 0 1 4 2 2 3 6 3 5 5 8 5 8 8 2 4 6 5 3 4 0 3 11 13 1 3 15 21 19 17 18 17 15 14 13
14 14 13 14 13 12 13 13 12 12 13 13 12 12 12 13 14 14 14 15 15 14 14 14 14 15 16 16 15 3 2 3 5 1 2 6 3 13 17 19 15 8 8 2 4 2 3 2 1 0 1 2 1 1 3 2 3 2 6 1 4 3 4 8 7 9 7 2 3 2 4 4 2 6 7 14 15 10 15 14 16 22 23 23 20 16 14 14
14 14 14 14 14 13 13 13 13 13 13 13 13 13 13 13 13 13 14 15 15 14 14 13 14 15 16 16 9 1 1 2 2 3 5 7 8 8 13 14 12 8 6 4 4 2 3 0 2 1 0 1 2 3 3 3 2 4 3 3 6 7 8 3 5 5 1 1 1 2 2 1 1 3 5 3 3 1 6 6 7 19 21 17 19 18 15 14
16 14 15 15 14 14 14 13 13 14 13 13 13 13 13 13 12 12 14 14 14 13 13 13 14 15 15 13 5 2 3 9 3 7 14 12 14 4 9 12 13 8 8 5 4 2 2 2 4 3 2 1 2 3 7 1 2 5 5 1 5 5 9 10 9 8 5 4 6 2 2 2 6 8 1 4 2 7 9 12 13 12 15 16 16 13 15 14
17 16 15 14 15 14 13 13 13 13 14 14 14 13 13 13 12 12 13 13 13 13 12 13 13 13 14 6 3 1 0 10 13 6 12 11 13 5 11 8 11 8 8 9 7 5 4 5 6 2 2 5 3 6 1 4 3 4 3 4 6 6 7 10 10 9 9 7 4 1 1 0 3 4 2 3 4 9 12 14 15 14 15 12 13 14 13 13
16 18 17 16 14 14 13 13 13 13 14 14 14 13 13 13 13 11 12 13 12 13 12 12 13 12 11 1 1 3 10 7 6 8 8 6 6 6 6 7 6 10 6 4 4 5 5 5 3 5 5 4 2 1 3 2 4 5 9 6 5 5 6 8 7 9 9 4 5 4 4 2 10 11 9 2 5 9 13 14 14 16 14 13 12 13 12 10
15 17 18 18 17 15 14 13 13 13 13 14 14 14 13 13 13 12 12 12 13 12 12 12 11 12 5 3 2 3 7 2 5 7 9 8 5 5 8 3 9 7 5 4 5 7 7 4 8 4 0 2 2 4 2 4 4 4 4 5 8 10 7 5 6 9 6 1 5 6 5 7 2 5 2 6 9 12 14 16 14 15 14 12 10 9 6 6
16 16 17 19 19 17 14 14 13 13 14 14 15 14 14 14 13 12 12 11 12 12 10 11 11 8 3 2 1 10 4 4 3 6 9 9 5 3 3 5 2 7 8 4 8 11 6 5 2 1 1 4 0 2 2 3 1 5 4 4 5 9 7 5 3 9 3 4 7 12 7 3 2 2 8 10 10 13 18 18 15 13 12 11 11 10 12 9
18 18 16 16 18 19 16 14 14 13 14 14 14 14 14 13 13 13 12 11 11 11 10 9 11 4 4 6 7 12 3 2 6 6 8 6 4 4 4 4 2 4 7 7 8 8 6 5 0 0 4 1 1 1 3 3 3 3 3 5 7 4 4 4 7 7 1 3 6 7 5 1 1 5 9 11 10 12 12 16 15 12 9 9 11 8 10 12
17 16 17 18 17 19 18 16 14 13 13 14 13 14 13 13 13 13 13 11 10 10 10 9 7 1 4 6 14 13 16 9 11 12 12 1 4 5 5 4 5 7 6 9 6 6 6 6 4 3 2 1 0 1 1 3 4 3 1 1 5 4 3 7 3 3 4 3 10 6 1 3 3 6 11 11 12 13 13 12 11 9 10 9 9 8 5 5
17 18 15 16 17 17 18 18 16 14 13 13 14 13 13 13 13 13 13 12 11 10 9 9 3 3 4 9 7 4 7 8 10 11 11 1 2 4 1 3 5 7 4 5 6 3 8 5 5 4 1 1 2 3 5 3 3 0 3 0 2 1 3 3 3 4 5 3 3 3 3 4 2 9 11 12 15 17 14 13 10 10 10 10 9 9 9 10
17 16 17 17 17 18 17 18 17 14 12 13 14 13 12 13 13 13 13 11 10 9 9 6 2 3 3 11 7 14 20 8 7 12 10 3 2 4 6 3 3 7 7 7 3 3 6 7 4 1 2 3 2 2 4 2 3 1 2 4 4 3 4 6 3 6 8 3 5 4 1 5 7 11 13 12 13 14 15 14 12 10 9 10 9 10 7 6
17 16 16 15 17 18 17 17 17 15 12 11 14 13 13 14 13 12 13 10 11 10 2 0 2 4 4 11 5 6 1 3 9 13 9 7 5 7 2 0 2 2 3 4 6 1 4 5 4 6 2 0 1 1 2 3 3 4 2 3 1 1 4 3 2 5 7 4 3 2 3 4 1 8 11 12 14 14 17 13 10 11 11 10 9 7 7 7
18 17 16 17 16 16 17 17 17 16 11 10 10 12 11 12 13 13 13 12 6 4 3 1 2 3 3 4 4 3 4 7 3 2 2 6 9 6 1 2 1 0 4 4 2 3 2 4 1 2 0 3 4 3 1 2 3 2 1 3 3 4 1 2 2 3 2 3 1 0 2 2 9 11 11 13 11 14 13 13 12 10 8 9 8 8 10 9
18 17 16 16 17 16 17 16 18 16 11 9 6 7 8 12 15 13 9 4 2 2 2 2 1 1 12 10 7 4 2 4 1 3 4 3 8 5 3 1 3 1 3 1 0 3 2 3 2 6 0 4 3 3 7 8 7 4 2 1 3 1 2 3 2 2 4 0 4 1 1 2 12 12 13 14 7 8 13 14 13 11 10 9 8 9 10 9
17 17 17 15 16 16 17 16 16 14 10 2 5 8 12 14 4 2 2 2 3 2 1 4 6 6 1 2 3 4 5 6 5 2 2 5 1 3 2 0 0 1 2 4 3 7 1 1 2 2 7 5 8 8 8 7 6 5 5 4 2 1 2 1 5 3 2 1 4 4 5 4 8 12 11 11 15 12 12 11 9 9 8 9 8 8 9 8
17 17 17 15 15 16 16 16 14 13 5 2 3 3 3 1 0 1 2 5 6 7 2 4 14 4 10 3 4 3 5 3 1 4 4 1 8 5 2 3 1 2 4 7 2 5 4 7 8 11 9 7 5 8 9 6 6 3 2 1 2 3 4 4 4 2 1 1 3 6 4 9 12 14 13 15 9 7 10 7 11 10 10 10 8 9 8 7
17 16 16 15 14 16 15 15 14 9 5 4 2 1 1 2 0 3 3 7 12 12 12 7 11 14 11 1 5 13 10 6 1 3 3 1 5 10 3 4 3 3 2 5 6 1 5 7 10 6 5 7 6 6 7 4 4 3 2 2 4 1 4 3 2 1 1 1 1 3 6 9 13 12 13 11 13 9 8 9 11 12 10 9 11 11 9 8
18 16 16 14 14 15 15 14 11 9 6 4 3 4 2 3 1 0 1 4 6 16 16 17 9 13 16 16 9 6 5 4 11 6 4 4 4 9 2 5 4 7 1 2 3 2 8 11 5 6 5 6 4 6 6 7 4 2 3 2 1 5 4 7 3 3 2 3 7 1 5 7 11 12 11 14 16 16 17 18 15 15 12 10 9 10 9 10
17 17 15 14 14 14 14 13 10 7 2 3 4 6 7 5 7 5 3 4 8 9 13 15 12 16 18 9 5 3 4 6 7 5 2 5 3 8 7 6 6 4 3 5 9 4 4 7 6 5 5 5 3 4 5 4 4 5 2 3 7 4 0 3 1 3 2 2 3 2 4 2 5 8 13 15 16 14 13 7 5 5 12 14 12 9 12 12
15 16 15 13 14 14 12 13 6 4 3 2 4 10 2 3 0 3 0 3 5 4 10 13 16 12 13 7 5 10 8 4 4 7 3 4 7 5 5 7 7 5 8 5 5 8 4 4 8 5 6 7 5 4 5 6 6 2 5 4 4 3 2 4 4 6 4 2 2 5 6 1 5 8 6 2 9 6 9 10 7 5 3 6 7 5 6 7
13 15 15 13 13 12 13 6 3 3 6 4 10 12 6 7 3 4 2 3 2 7 7 7 5 6 8 5 4 7 5 3 9 2 1 5 5 5 3 2 5 9 6 6 4 5 7 5 5 8 5 5 5 5 7 8 6 3 4 10 8 3 3 2 3 5 7 6 2 6 1 4 6 13 16 7 7 7 7 10 10 9 10 12 8 8 7 5
13 13 14 12 11 10 5 2 3 4 4 6 1 2 3 6 7 4 1 1 5 3 4 7 9 8 9 4 9 5 5 5 8 10 4 3 3 3 3 4 3 8 5 5 6 3 5 3 7 8 7 5 5 6 4 8 7 3 7 9 5 5 2 1 4 2 2 2 3 2 7 1 3 7 9 9 12 10 4 10 10 11 12 10 9 9 9 10
12 12 13 11 10 5 3 4 4 8 4 5 2 3 2 4 4 7 2 2 3 5 8 3 7 1 6 11 12 8 2 8 2 4 7 6 5 3 7 2 3 1 4 2 1 7 5 8 5 5 9 8 6 8 4 9 7 4 3 7 7 5 4 4 4 4 6 2 6 1 4 5 2 8 7 12 15 13 13 8 10 11 13 10 9 9 9 9
11 12 11 11 10 5 4 3 2 4 6 2 2 4 6 3 6 2 1 1 3 4 3 3 6 3 3 11 15 10 5 1 7 5 8 6 4 5 5 9 6 6 4 4 11 2 9 6 8 6 5 7 10 4 5 9 7 4 3 9 7 8 8 6 5 6 3 2 9 4 2 1 2 3 1 9 14 14 16 13 14 13 14 12 12 10 10 9
11 10 10 10 10 10 4 3 2 7 1 2 7 7 3 5 7 3 2 2 1 1 3 4 4 1 5 11 10 12 2 1 1 5 5 3 6 2 8 5 5 6 5 8 6 2 1 9 9 8 7 10 5 5 8 9 5 4 2 2 2 3 2 4 5 4 1 2 8 7 3 3 1 1 7 7 14 18 14 15 15 16 16 12 12 12 11 8
9 10 9 9 5 3 2 4 7 3 3 5 6 7 5 3 4 1 1 3 1 1 2 0 3 5 10 12 7 11 4 2 2 4 4 4 5 3 1 6 5 7 6 3 5 7 2 4 9 7 9 5 5 4 7 8 7 2 5 2 2 3 1 1 2 2 3 2 9 7 6 7 3 6 10 13 14 16 12 9 8 7 7 8 10 11 10 8
9 10 9 6 3 1 3 4 7 3 3 3 7 5 4 1 2 1 2 4 2 0 2 3 4 10 12 14 10 8 5 2 1 8 7 4 5 5 4 6 1 4 3 4 6 6 3 1 5 3 7 3 5 4 4 8 5 2 1 3 1 5 4 2 1 2 3 6 8 7 8 7 7 3 6 4 2 14 18 16 15 14 13 11 10 9 10 8
8 9 9 3 3 2 5 2 3 4 5 7 8 1 4 3 5 4 5 3 1 4 2 3 3 9 11 7 8 11 9 1 2 5 10 8 8 10 11 8 8 8 9 8 8 3 8 7 1 3 7 10 4 5 4 4 3 6 3 1 6 2 1 3 1 3 5 6 3 1 6 2 6 4 5 12 7 11 14 18 23 19 16 12 12 11 10 8
7 7 9 5 5 1 5 3 3 5 7 8 5 2 3 2 4 3 5 5 3 4 3 0 5 9 11 7 7 9 4 4 2 1 8 5 11 9 5 8 5 6 7 2 3 5 6 3 2 4 4 8 9 9 4 4 7 8 9 7 5 4 4 5 2 1 3 6 2 1 4 2 1 2 1 8 5 11 7 2 4 10 13 13 11 9 10 9
5 5 2 3 4 5 3 2 1 4 5 7 2 1 2 2 3 2 5 3 5 7 6 3 1 8 10 8 7 9 5 3 5 3 6 6 10 10 6 6 8 3 5 6 8 8 5 8 12 8 5 7 10 11 11 4 7 9 4 9 7 4 3 4 3 5 6 8 2 5 4 3 4 2 2 4 4 6 7 8 8 11 11 9 7 9 11 10
5 3 2 2 3 4 3 2 0 2 3 5 2 3 6 4 2 3 2 6 5 8 8 11 3 7 6 3 1 7 4 3 3 3 5 9 9 8 8 8 2 5 4 9 4 2 13 7 6 8 4 8 10 7 6 5 4 3 5 6 5 11 5 2 5 4 4 2 0 5 0 1 1 1 2 3 8 12 11 12 15 14 10 10 9 9 10 8
2 2 0 1 1 1 4 3 1 1 3 4 1 3 4 2 1 4 3 7 5 9 14 11 8 5 3 3 0 7 4 2 6 2 1 6 5 7 5 4 7 9 6 7 4 5 3 5 2 3 8 5 12 8 6 9 6 4 8 10 9 5 3 3 1 0 3 4 1 0 1 2 1 4 6 9 12 13 13 15 14 11 11 10 8 7 10 8
2 1 0 2 1 2 4 1 1 1 2 3 1 1 1 2 4 5 6 9 10 12 7 4 4 2 3 4 3 7 4 3 1 2 1 3 2 5 6 4 5 5 5 7 1 2 8 4 4 4 9 9 5 11 9 9 7 5 6 7 2 2 3 4 4 1 3 4 2 2 1 3 2 2 1 12 14 14 15 16 13 10 10 10 8 8 9 8
1 1 0 1 2 1 2 0 1 2 3 1 1 2 1 2 5 8 8 11 12 10 5 1 2 5 3 4 4 8 3 5 2 3 3 4 2 3 6 4 5 8 5 1 3 2 3 2 4 6 8 8 4 2 3 5 5 10 8 7 9 5 7 2 3 2 1 0 1 2 5 1 2 2 8 12 14 16 17 15 13 12 10 10 9 10 10 9
0 1 2 6 2 3 2 3 2 2 2 2 1 2 3 3 7 5 10 10 9 10 5 1 2 2 3 5 3 3 7 6 2 3 4 3 3 5 10 5 4 7 8 7 2 1 2 2 3 2 8 4 4 6 7 8 1 2 6 10 2 6 3 3 5 4 7 2 2 2 4 3 3 4 12 16 14 14 15 16 13 12 12 11 10 10 11 10
1 1 4 3 2 3 3 2 0 1 0 1 1 2 5 7 4 7 9 10 6 6 2 5 3 3 2 1 4 5 4 6 5 3 2 1 5 2 7 9 5 7 9 6 3 1 1 1 1 2 2 5 5 5 10 8 8 4 6 5 2 1 3 5 1 2 4 6 5 4 2 4 5 5 8 12 14 15 17 17 12 11 11 11 10 11 11 10
1 2 2 2 5 2 2 2 2 1 1 1 1 3 6 5 6 7 10 8 8 6 8 7 6 2 1 3 1 5 4 4 5 3 3 1 7 1 5 7 7 9 5 5 6 2 0 0 5 2 3 6 6 5 5 9 10 8 9 8 7 8 4 6 6 2 3 6 4 5 5 5 6 0 8 12 12 13 13 15 13 12 12 12 11 11 11 10
1 3 0 3 6 2 2 3 1 0 1 1 0 2 3 6 4 7 10 3 4 6 5 5 7 6 3 4 3 1 5 4 4 4 2 5 4 2 3 7 7 8 9 6 8 3 5 2 1 2 4 6 4 1 7 14 8 8 10 6 7 4 7 5 5 5 3 1 5 4 3 6 4 2 2 8 9 9 11 12 11 11 12 12 12 11 10 12
5 1 2 3 3 2 1 2 1 1 1 2 5 6 5 6 6 7 7 5 5 6 5 6 4 1 4 3 1 1 3 2 6 5 3 5 4 10 5 11 8 10 9 3 3 3 4 1 0 3 4 5 6 5 0 5 7 3 1 4 7 5 7 8 4 5 6 3 2 0 1 3 3 1 1 7 8 9 9 12 13 11 10 12 13 12 11 11
3 3 2 1 3 4 1 1 1 1 3 5 3 7 6 6 4 5 6 6 3 4 3 3 5 5 1 1 1 0 1 2 4 6 4 4 4 9 7 9 10 5 9 6 8 5 4 2 3 1 1 1 2 2 3 1 1 3 4 3 4 4 5 3 6 1 3 5 7 8 5 3 1 4 6 10 10 11 11 9 15 12 10 11 12 11 10 10
0 1 1 3 3 3 0 0 2 0 3 4 5 6 5 4 6 10 9 8 7 10 5 5 4 5 2 0 0 1 1 4 2 8 2 2 3 3 11 9 12 6 6 5 7 6 5 3 4 2 5 5 6 8 5 5 9 2 1 4 4 8 6 4 1 1 2 1 4 3 3 4 3 8 10 11 11 11 9 9 8 13 12 11 10 10 10 10
1 3 2 2 2 3 1 3 2 2 3 5 3 4 2 3 4 9 12 15 15 12 10 9 10 5 2 6 5 3 3 1 1 3 4 1 1 1 6 13 13 7 9 11 9 9 3 2 3 6 6 6 8 6 4 4 2 3 2 6 5 5 7 6 6 5 6 3 3 5 7 8 11 13 12 13 13 14 14 12 12 12 12 10 10 10 9 9
1 2 1 2 3 2 5 3 5 4 3 4 4 3 2 5 6 8 10 6 8 10 5 8 3 0 4 5 2 2 2 4 6 4 1 1 2 1 5 12 11 14 14 10 10 6 4 4 3 6 4 6 5 5 4 5 7 0 4 1 1 6 7 8 6 6 5 9 4 0 8 15 12 13 13 15 14 13 11 11 12 12 12 12 10 9 8 8
2 1 1 1 0 2 1 6 5 7 8 3 3 2 5 7 5 4 6 11 11 3 3 4 6 3 3 3 1 1 4 2 1 1 3 2 1 3 4 3 6 9 15 6 9 5 5 6 2 3 4 4 4 1 7 8 4 4 5 3 3 1 6 8 7 4 8 5 8 7 11 12 13 17 18 19 20 20 17 14 11 12 11 10 11 11 10 9
0 1 1 1 1 2 5 3 3 5 5 5 3 3 6 6 9 6 4 5 3 5 3 2 2 5 6 3 5 1 1 1 4 2 2 2 1 2 4 4 2 2 10 4 7 2 6 3 2 3 3 5 7 5 4 13 4 6 6 4 2 2 3 4 3 4 7 3 5 12 11 5 3 10 12 11 8 12 12 12 11 13 13 12 11 11 11 10
3 2 1 1 3 4 5 3 4 5 6 6 4 5 4 5 8 6 5 3 3 4 5 6 1 1 3 6 5 2 1 0 0 1 2 1 3 6 1 2 2 4 3 5 5 1 5 3 6 3 4 2 5 6 4 8 8 7 4 5 5 4 6 4 3 3 7 6 4 11 10 3 2 6 8 10 10 11 12 14 14 13 13 14 13 12 11 11
2 2 2 2 4 2 4 5 4 3 2 2 2 5 3 5 4 6 2 4 3 2 3 1 0 1 4 4 2 2 2 3 3 4 4 1 2 1 3 3 1 1 3 4 3 0 3 0 2 4 5 0 2 2 3 9 11 8 4 5 5 3 4 1 2 2 6 8 11 11 6 4 4 10 9 11 13 15 16 15 14 13 14 14 14 13 12 10
3 2 2 2 2 3 3 4 3 3 0 3 2 2 2 5 6 7 2 2 1 2 1 0 1 4 2 3 1 3 3 4 7 6 3 6 0 6 2 2 2 3 3 2 1 5 5 6 4 4 6 3 2 1 2 2 4 3 2 1 0 2 1 2 1 1 3 16 12 9 11 8 12 14 15 12 14 13 14 14 13 13 12 13 13 12 11 10
Wind_Direction
303 308 306 303 308 308 310 310 311 312 311 312 312 319 318 321 319 320 321 322 321 321 322 322 321 321 325 326 327 327 334 334 313 310 269 241 199 234 236 236 77 188 167 165 347 29 322 35 204 298 98 126 230 114 228 126 163 77 156 133 264 227 221 217 209 186 223 305 315 335 24 331 289 57 95 80 43 87 91 78 63 61 63 94 104 115 119 125
300 297 303 304 303 305 304 307 306 307 309 308 312 313 314 315 318 318 320 322 321 318 321 325 322 320 324 325 328 328 337 313 298 286 246 165 216 215 235 242 189 126 126 99 157 169 151 327 264 94 132 164 300 186 144 242 143 146 167 134 230 206 238 197 232 270 324 297 313 308 320 194 267 139 169 102 133 123 97 91 100 98 93 100 109 121 126 134
295 295 295 298 299 300 301 302 305 306 303 305 307 310 311 312 315 318 321 321 320 319 318 322 322 323 326 324 324 333 333 312 289 260 272 194 230 219 227 234 217 184 164 174 212 155 161 190 200 117 11 95 326 184 156 254 151 218 141 224 239 212 249 257 258 268 259 284 309 317 315 52 201 265 73 133 139 138 133 130 124 128 133 132 131 128 136 140
288 290 289 292 297 299 298 298 300 300 302 303 306 309 311 312 312 317 320 319 318 318 320 319 320 324 323 323 325 330 19 278 275 255 269 251 229 217 220 221 210 180 172 220 168 168 176 117 100 117 114 133 289 72 170 249 150 261 162 217 232 226 246 261 245 250 261 236 277 297 308 34 257 355 120 129 108 92 212 159 148 151 147 145 146 143 145 147
283 285 288 290 293 293 293 294 295 299 298 300 301 304 308 310 314 315 322 318 317 319 319 321 323 321 324 320 323 2 318 11 265 233 264 314 280 219 220 220 194 165 173 150 118 106 107 123 80 38 98 205 348 39 242 255 216 114 223 177 205 274 261 262 250 254 257 349 281 350 1 311 329 120 152 152 144 195 189 190 164 148 147 149 149 154 149 151
281 280 284 287 289 292 292 292 295 294 296 298 299 301 302 306 311 316 319 318 316 322 319 320 321 325 323 326 318 137 182 163 289 310 339 351 327 249 214 207 177 153 154 164 163 129 122 34 108 80 71 98 190 164 267 196 160 247 288 214 230 233 244 278 262 254 78 352 291 337 263 12 115 142 178 356 317 85 102 125 156 148 151 144 144 147 151 153
280 277 278 280 281 285 289 289 290 292 292 294 297 298 301 305 309 316 316 322 315 320 323 321 323 324 329 332 302 156 189 279 331 252 3 11 358 272 179 165 154 139 155 160 157 139 153 137 148 203 116 147 263 189 247 267 194 211 250 264 275 230 241 260 265 278 279 220 251 221 18 128 144 146 221 37 15 106 104 119 125 131 133 137 143 147 149 156
285 277 269 271 276 278 281 286 287 289 292 292 293 296 298 301 307 313 319 318 319 314 323 322 322 329 334 347 344 268 359 245 256 348 2 21 17 61 119 114 132 139 154 185 159 164 133 153 175 147 179 154 223 170 252 211 242 224 261 248 257 265 244 255 256 265 265 256 250 71 188 259 118 144 70 27 93 114 118 118 124 132 135 136 140 144 153 160
284 283 274 264 264 268 272 277 283 286 288 291 291 292 295 300 304 311 313 316 315 314 315 320 324 328 343 277 308 328 242 254 14 346 14 28 38 16 124 115 142 146 175 147 164 158 139 231 185 179 214 221 245 224 261 160 301 205 225 239 267 263 265 260 287 267 258 272 117 70 103 107 113 90 53 100 102 115 121 117 116 132 138 140 145 151 157 154
293 283 280 279 268 266 265 267 273 280 284 288 289 292 294 297 301 304 310 316 315 312 312 320 320 334 349 344 266 222 264 201 30 11 8 10 45 44 307 99 151 151 139 194 122 149 185 202 173 223 135 224 196 218 188 136 234 171 215 240 247 256 263 282 242 270 261 191 124 122 147 152 204 64 137 122 126 127 123 127 132 142 146 142 141 139 119 85
296 289 282 273 270 266 263 261 268 275 279 283 288 290 293 297 301 304 303 308 310 305 311 312 325 332 350 16 236 218 240 113 342 359 356 350 3 49 275 27 216 162 184 156 185 188 187 141 173 128 139 222 110 281 148 222 340 320 274 302 278 265 268 269 267 259 308 305 141 146 160 144 337 79 154 142 142 138 136 139 143 146 145 137 120 92 58 47
305 303 297 281 273 268 259 260 265 271 278 283 288 292 294 297 299 300 300 301 303 305 302 308 313 323 286 273 246 224 35 344 330 329 329 332 316 256 216 173 181 232 177 191 219 210 173 167 164 126 195 34 251 297 262 242 328 285 352 339 294 342 278 232 214 243 170 248 123 129 73 23 3 145 145 135 135 142 133 140 146 147 137 113 99 109 148 175
303 301 301 297 276 266 268 259 258 266 273 282 286 290 293 295 297 295 296 299 297 295 301 306 312 304 316 283 241 253 287 306 316 317 309 229 254 253 238 232 194 207 211 200 224 206 168 151 148 202 249 332 209 206 278 342 302 329 3 167 323 344 327 268 229 269 235 247 125 164 120 265 299 147 140 139 137 140 139 141 141 139 132 120 117 138 154 155
302 302 300 290 284 270 263 259 258 259 270 277 283 289 293 296 297 298 297 293 292 292 298 298 328 283 251 255 273 294 288 293 302 306 279 145 211 283 268 229 200 204 203 233 247 155 150 171 160 209 321 178 263 309 354 345 10 124 258 132 226 354 264 280 196 200 194 274 127 123 143 276 264 157 150 149 149 148 151 149 141 137 129 126 135 153 165 176
302 304 302 301 300 287 264 260 258 258 259 271 282 286 289 294 291 290 291 293 291 294 288 297 258 315 247 264 272 259 249 256 271 253 244 180 190 307 275 277 233 198 198 207 240 167 145 148 134 161 236 243 217 327 312 18 351 337 39 298 324 158 277 292 293 166 183 281 57 104 115 204 171 162 162 157 154 149 146 153 146 140 135 136 138 147 150 152
301 301 302 300 297 298 281 255 257 258 261 270 279 287 291 292 294 292 292 287 288 283 294 40 214 194 308 282 262 304 264 176 241 237 245 171 183 214 215 64 341 266 170 245 224 286 148 143 165 183 221 296 152 112 16 11 337 347 133 268 280 183 253 356 266 204 188 161 357 142 181 109 151 165 164 162 156 157 151 149 141 136 141 144 145 143 147 149
300 299 300 302 301 301 297 274 257 253 259 269 281 287 295 295 288 284 282 280 271 273 197 215 128 174 208 224 330 284 239 226 306 10 75 190 168 197 90 354 305 242 185 250 212 200 278 158 231 91 143 175 168 127 152 293 305 304 22 209 208 183 240 265 292 291 268 127 240 342 129 229 165 167 164 167 163 155 149 143 143 146 147 146 143 148 156 163
297 296 298 299 302 303 302 275 251 250 254 267 291 308 303 291 282 284 279 265 221 214 202 222 230 196 271 264 283 241 289 302 167 219 178 190 181 158 155 182 291 215 131 214 143 158 195 200 131 196 60 165 145 138 163 216 179 203 219 238 299 263 206 218 159 237 123 31 162 158 135 54 155 163 163 157 207 206 156 152 154 154 151 150 151 156 162 165
294 295 295 297 299 302 300 297 267 253 250 290 357 329 301 287 292 190 212 166 130 66 31 210 164 159 257 301 228 345 315 273 295 217 249 127 161 131 122 145 191 82 165 155 273 169 260 131 75 139 213 174 192 177 179 204 169 181 165 178 167 174 237 196 249 273 155 135 157 145 182 157 166 161 164 169 164 197 179 147 140 144 146 148 153 158 163 160
290 293 295 297 297 299 302 298 265 251 248 57 27 340 1 55 299 301 192 202 222 208 204 186 206 303 323 254 73 308 278 303 254 232 183 211 110 123 153 150 156 139 142 184 188 201 128 181 191 203 204 190 186 176 188 189 165 150 131 131 211 199 277 276 267 282 13 55 229 189 133 153 171 167 173 169 151 169 158 153 151 158 158 160 158 159 153 144
288 290 293 294 293 294 299 301 271 229 212 110 99 35 259 211 189 256 166 226 226 243 260 260 209 230 237 27 4 25 9 316 344 308 221 182 133 125 213 145 150 187 213 165 159 253 125 195 223 200 183 178 189 188 196 165 183 176 164 202 275 180 260 231 260 339 357 147 294 142 121 171 173 178 173 147 137 162 216 198 166 162 166 163 161 157 149 135
287 288 291 294 292 292 299 304 272 233 150 126 143 244 239 235 149 176 60 287 229 227 242 252 244 257 261 270 283 2 342 287 306 275 260 159 191 163 224 149 153 183 207 154 119 159 197 216 206 194 185 168 176 189 193 176 175 152 176 176 318 269 243 280 273 296 252 123 256 148 140 188 184 179 169 158 168 179 177 187 176 165 165 166 164 159 139 142
287 287 289 293 291 293 297 306 270 229 112 125 215 228 249 253 281 285 228 266 276 221 219 232 247 247 258 257 261 201 229 240 260 282 234 144 149 190 145 147 165 171 173 159 183 127 216 253 224 193 141 141 199 196 177 189 179 162 119 132 227 235 120 295 301 10 9 161 264 155 155 152 211 184 172 181 174 180 183 146 118 140 167 172 168 155 154 155
283 285 285 288 289 292 298 301 240 181 176 193 222 229 192 213 189 325 78 251 284 259 194 211 213 233 242 217 184 178 184 229 185 268 261 155 166 157 145 157 151 165 200 166 171 181 191 258 174 149 159 165 185 203 164 165 219 228 171 190 229 186 217 158 255 340 319 331 107 91 71 52 153 170 195 86 8 143 137 114 161 153 77 91 108 123 162 154
279 278 280 284 285 292 303 291 185 184 115 195 249 257 241 245 272 325 16 304 266 271 203 232 190 235 234 142 137 163 211 269 229 247 245 139 158 140 207 154 129 199 179 165 159 176 237 264 146 153 175 177 181 204 196 150 212 251 229 203 210 150 209 318 327 10 13 331 276 138 37 200 232 183 179 144 120 189 150 151 181 158 136 149 160 159 147 135
277 282 281 281 285 294 311 187 209 123 165 230 224 333 226 225 222 220 166 329 292 249 99 227 145 252 136 193 135 191 132 243 211 219 215 208 186 161 131 218 142 189 174 140 176 194 189 233 148 180 168 186 197 205 211 163 185 177 257 200 163 164 163 258 294 47 315 212 285 126 160 260 322 206 179 155 157 146 254 168 172 150 144 156 163 160 159 160
271 271 273 280 280 284 214 227 97 129 188 260 176 262 298 207 172 177 130 311 312 201 165 141 161 308 158 169 154 153 102 255 150 169 195 236 182 149 161 196 97 131 150 155 92 240 159 201 168 179 175 185 190 215 214 156 137 221 246 141 154 162 199 230 225 183 233 263 300 194 169 139 185 237 196 163 152 151 172 186 162 151 149 163 164 162 160 160
269 268 273 276 277 265 238 4 98 172 209 53 331 10 326 302 149 202 27 142 277 133 143 203 223 162 170 163 155 173 199 169 138 214 185 188 166 171 184 181 171 158 170 151 200 302 167 198 183 183 187 184 210 183 153 161 147 212 147 121 156 168 197 219 210 221 221 316 285 307 89 120 219 256 95 158 153 160 168 170 167 160 161 164 164 160 156 158
270 275 277 279 278 279 255 205 182 228 147 359 326 310 330 307 160 179 186 169 168 139 73 105 243 199 103 144 160 193 275 217 176 161 160 135 219 95 189 191 152 168 206 182 177 260 230 192 190 171 171 211 184 175 161 149 184 246 135 93 132 153 161 185 210 207 293 131 258 253 171 153 308 227 147 191 169 170 172 174 169 166 169 162 155 152 149 150
281 277 279 279 299 294 246 214 240 238 7 336 310 304 305 154 158 219 77 262 123 281 165 302 184 180 147 151 172 204 205 286 260 116 134 148 199 224 245 132 149 162 200 151 178 205 215 168 163 182 203 187 171 196 155 180 190 142 137 212 318 42 24 32 85 134 70 236 250 231 207 169 193 221 180 178 189 174 167 160 151 149 150 148 151 148 146 148
279 279 275 275 232 234 156 218 254 265 270 314 298 268 82 280 163 175 189 246 349 296 62 153 183 131 153 159 165 208 211 281 333 152 150 143 161 190 136 161 120 157 175 175 203 225 271 213 165 217 127 167 155 190 192 192 182 179 66 146 204 296 3 353 327 41 188 262 263 236 188 177 198 217 223 233 198 182 165 167 167 170 171 161 149 146 146 147
281 280 278 264 233 207 200 207 83 59 25 349 321 310 139 120 3 190 211 335 61 301 174 201 161 147 166 176 160 175 181 158 268 162 161 165 158 179 188 181 155 155 199 184 211 180 236 230 270 119 174 172 156 161 240 197 141 161 149 116 137 260 120 266 164 241 201 210 255 329 135 82 233 213 216 189 185 184 192 176 175 173 163 152 149 149 145 135
284 279 274 256 247 124 260 308 339 27 10 346 331 182 109 113 204 237 284 319 64 3 315 215 155 159 170 162 191 169 168 183 194 232 146 147 156 192 191 180 180 139 180 154 87 162 253 319 208 223 174 196 148 173 182 211 197 157 178 169 154 176 176 207 258 215 309 286 231 317 256 217 324 283 295 184 216 187 169 115 158 155 143 142 144 142 137 136
280 275 265 239 231 206 192 222 325 10 20 334 282 120 58 91 249 215 228 344 303 340 311 18 335 160 163 179 185 152 158 241 155 230 158 147 163 179 209 213 159 125 94 155 175 180 178 227 241 179 223 169 178 190 190 171 147 192 110 153 177 137 162 203 192 190 207 211 309 316 135 238 129 229 317 254 242 126 106 109 114 126 130 130 124 126 125 128
266 273 228 272 244 223 207 138 140 64 316 346 274 119 170 218 257 320 27 345 329 326 316 319 180 135 178 223 175 163 129 210 210 145 163 150 187 182 180 187 223 137 132 137 236 107 206 224 263 203 216 169 187 189 165 136 119 188 152 89 129 221 135 167 202 152 219 207 193 7 37 159 183 314 309 126 119 99 104 109 125 132 129 134 129 132 128 122
294 312 31 234 222 97 144 267 52 80 333 311 133 158 190 203 228 10 7 337 325 340 319 324 133 134 143 185 355 173 208 109 215 104 175 168 160 173 189 168 179 183 149 165 189 184 159 233 251 190 211 176 191 162 196 149 194 220 125 193 204 142 122 66 38 126 96 52 11 262 243 287 204 42 57 125 113 117 114 125 131 129 131 128 128 126 116 120
77 281 327 24 299 133 112 149 301 272 255 265 57 205 253 322 33 359 351 343 324 315 309 48 152 112 173 179 177 180 188 68 228 125 216 138 170 191 181 212 151 169 191 129 275 187 155 237 277 135 210 228 199 186 179 186 142 124 182 218 114 117 117 139 209 356 59 171 230 351 196 158 167 178 183 130 133 136 135 142 140 130 133 130 127 121 117 117
2 315 132 235 229 93 102 240 252 204 237 253 33 203 43 284 41 1 348 336 333 329 318 316 285 90 194 140 212 178 174 147 226 128 208 199 252 194 168 177 193 179 198 186 129 255 147 314 252 194 192 201 161 129 236 208 156 169 186 177 149 205 236 301 101 183 140 270 273 353 168 253 194 221 146 153 151 149 146 144 139 142 137 126 123 117 111 111
138 246 46 10 54 157 196 194 207 288 280 62 353 286 328 317 10 8 340 338 317 318 317 331 14 296 145 169 187 186 156 179 199 167 122 218 163 207 185 160 193 184 177 145 194 216 58 175 299 227 178 188 142 131 210 211 317 62 112 165 172 118 165 116 202 169 108 182 107 230 178 235 209 217 179 167 164 152 144 145 150 139 136 133 131 128 123 123
31 56 43 344 350 144 176 116 261 358 53 134 259 269 351 326 357 337 324 338 327 353 310 316 359 334 360 206 166 168 157 145 155 239 127 203 186 256 189 180 158 184 177 168 197 155 280 131 235 289 276 127 200 185 206 177 162 132 149 186 206 116 217 108 47 126 155 160 173 139 216 255 250 201 185 167 163 160 154 149 143 132 131 129 127 126 124 122
284 111 70 344 3 119 84 55 54 66 142 281 316 298 324 319 337 308 311 311 306 262 256 289 303 275 340 4 338 151 156 153 166 179 173 228 182 170 237 182 142 172 139 166 206 162 105 141 200 317 135 194 222 230 160 173 167 168 157 188 167 116 118 155 239 21 92 108 174 133 228 266 265 277 169 172 169 162 155 141 133 133 132 129 126 124 126 122
259 77 13 343 353 128 99 55 320 231 96 127 180 353 306 349 302 293 308 309 264 266 269 272 258 246 234 225 199 254 133 168 172 167 220 160 221 169 229 177 160 151 153 182 189 219 154 163 113 234 197 209 218 148 188 178 171 165 160 203 167 137 116 114 167 238 50 68 112 150 118 273 243 281 216 167 150 146 138 128 122 126 126 125 125 124 123 125
16 54 259 10 351 122 106 41 319 22 354 266 310 280 296 275 268 286 290 290 296 247 246 222 239 200 241 203 191 249 135 159 168 198 179 180 229 207 218 178 159 155 152 177 117 249 133 199 98 299 290 297 304 295 230 171 115 96 17 94 128 171 173 163 162 185 137 150 90 17 128 253 292 203 193 120 116 117 126 131 124 125 125 126 128 129 128 124
10 30 350 313 4 78 79 131 285 313 291 307 302 283 264 255 255 270 259 262 240 296 288 314 304 208 282 93 107 214 227 77 207 174 228 199 230 216 197 178 171 179 154 206 174 198 161 270 121 356 36 345 342 34 61 49 205 153 173 199 169 121 87 148 108 180 98 221 170 135 215 256 260 124 114 117 121 127 129 137 131 128 131 132 132 133 130 128
126 260 336 311 354 63 141 91 89 163 262 277 288 271 258 236 237 247 256 262 224 245 277 255 227 339 345 7 300 237 256 165 158 209 163 198 246 190 201 182 190 189 182 183 166 154 165 201 127 174 157 162 192 183 198 188 201 231 139 146 162 133 134 107 126 88 116 259 122 136 208 262 137 128 134 131 128 122 126 127 126 130 134 136 135 134 133 133
328 105 340 351 1 21 335 122 273 296 293 295 268 264 266 272 277 249 236 259 242 237 237 271 298 269 35 25 21 7 339 324 130 179 177 260 297 232 186 194 184 190 191 166 159 138 164 138 135 151 160 180 207 213 245 131 88 134 181 145 196 157 148 113 113 97 182 199 158 224 168 154 151 152 154 151 147 147 146 147 144 139 137 137 136 135 139 142
230 86 146 166 0 316 282 315 291 303 278 335 314 341 277 239 269 292 226 239 244 199 216 206 245 55 24 56 351 336 330 327 355 63 25 180 252 248 277 186 190 189 177 169 163 116 101 179 194 157 185 205 194 221 211 159 138 285 116 87 159 150 147 132 144 210 168 108 235 266 168 150 185 169 161 158 155 149 147 147 144 140 142 143 135 127 122 124
68 325 37 259 180 202 243 276 232 248 256 271 265 288 271 300 288 273 287 242 265 232 188 12 44 71 116 160 175 39 327 329 347 23 332 5 348 308 42 359 170 198 178 178 168 156 144 173 230 121 13 4 322 43 116 87 76 123 101 102 81 54 150 151 192 174 135 151 202 192 178 170 179 180 174 175 169 166 160 152 142 134 126 127 131 134 139 141
85 193 215 285 49 226 207 245 225 220 247 210 259 251 277 267 282 266 266 307 350 7 48 100 12 17 28 32 99 303 307 63 348 333 61 359 315 35 39 1 54 335 181 149 170 174 133 186 151 111 68 7 342 352 63 104 135 62 44 33 26 76 172 136 117 172 146 156 188 151 182 179 206 193 171 156 130 127 130 127 131 136 140 139 139 145 148 148
21 329 326 309 246 268 276 283 268 245 244 237 236 238 247 279 288 321 296 10 349 3 17 78 98 31 33 32 73 158 301 159 172 352 337 76 310 50 94 190 260 334 157 163 169 273 138 243 135 104 76 332 342 343 41 83 89 82 22 33 54 61 66 44 95 108 85 53 110 130 147 177 291 130 132 127 121 121 126 142 146 144 143 146 148 152 154 154
312 259 258 268 280 245 231 216 228 210 202 267 230 286 282 290 305 341 313 305 40 53 7 51 327 73 17 43 101 249 228 248 247 243 277 272 96 161 93 300 187 137 97 129 152 118 109 180 33 85 97 312 313 27 29 79 78 82 43 29 28 58 87 343 99 216 123 140 125 119 126 189 183 127 123 130 138 145 149 150 148 153 153 150 153 158 158 156
303 231 227 255 288 280 340 301 253 125 265 227 236 288 281 293 295 331 304 267 77 108 56 147 198 104 10 342 345 318 284 266 273 275 290 275 319 70 63 278 295 173 150 101 346 121 123 127 125 116 122 234 251 283 248 76 78 53 358 284 229 356 63 98 346 113 193 137 119 138 214 176 153 143 136 150 152 151 149 154 147 150 154 152 154 158 157 153